Location: Caltech
(34.1382°N, 118.1253°W)
Time: 22:28:17
(UTC-07:00)

UOSAT-12 - Visible Passes

Search period start: 31 October 2014 00:00
Search period end: 09 November 2014 23:00
Orbit: 594 x 664 km, 64.6° (Epoch: 31 October)

Date Brightness Start Highest point End Pass type
(mag) Time Alt. Az. Time Alt. Az. Time Alt. Az.
05 Nov 9.7 19:06:25 10° N 19:06:44 12° N 19:06:44 12° N visible
06 Nov 9.7 19:26:28 10° NNW 19:27:08 14° NNW 19:27:08 14° NNW visible
07 Nov 8.8 18:07:54 10° N 18:10:19 17° NE 18:10:19 17° NE visible
07 Nov 9.9 19:47:02 10° NW 19:47:42 14° NW 19:47:42 14° NW visible
08 Nov 7.9 18:27:29 10° NNW 18:31:06 35° NNE 18:31:06 35° NNE visible
08 Nov 10.3 20:08:23 10° WNW 20:08:30 10° WNW 20:08:30 10° WNW visible
09 Nov 7.0 18:47:40 10° NNW 18:52:13 84° NNW 18:52:13 84° NNW visible
